TimePDT,TemperatureF,Dew PointF,Humidity,Sea Level PressureIn,VisibilityMPH,Wind Direction,Wind SpeedMPH,Gust SpeedMPH,PrecipitationIn,Events,Conditions,WindDirDegrees,DateUTC
12:51 AM,68.0,63.0,84,29.88,10.0,Calm,Calm,-,N/A,,Clear,0,2013-07-02 07:51:00
1:51 AM,66.9,63.0,87,29.88,8.0,Calm,Calm,-,N/A,,Clear,0,2013-07-02 08:51:00
2:44 AM,66.2,64.4,94,29.89,7.0,Calm,Calm,-,N/A,,Scattered Clouds,0,2013-07-02 09:44:00
2:51 AM,66.9,64.0,90,29.89,7.0,SW,4.6,-,N/A,,Mostly Cloudy,230,2013-07-02 09:51:00
3:51 AM,66.0,64.0,93,29.89,6.0,Calm,Calm,-,N/A,,Mostly Cloudy,0,2013-07-02 10:51:00
4:01 AM,66.2,64.4,94,29.90,6.0,Calm,Calm,-,N/A,,Scattered Clouds,0,2013-07-02 11:01:00
4:51 AM,66.0,63.0,90,29.90,1.5,SW,4.6,-,N/A,,Mostly Cloudy,220,2013-07-02 11:51:00
4:55 AM,64.4,62.6,94,29.90,0.8,SW,4.6,-,N/A,,Mist,220,2013-07-02 11:55:00
5:51 AM,64.9,64.0,97,29.91,0.2,SSW,4.6,-,N/A,Fog,Fog,200,2013-07-02 12:51:00
7:17 AM,64.4,62.6,94,29.93,1.2,Calm,Calm,-,N/A,,Overcast,0,2013-07-02 14:17:00
7:34 AM,64.4,62.6,94,29.94,2.0,Calm,Calm,-,N/A,,Overcast,0,2013-07-02 14:34:00
7:42 AM,66.2,64.4,94,29.94,4.0,Calm,Calm,-,N/A,,Overcast,0,2013-07-02 14:42:00
7:51 AM,66.0,64.0,93,29.94,4.0,Calm,Calm,-,N/A,,Partly Cloudy,0,2013-07-02 14:51:00
8:51 AM,68.0,64.0,87,29.95,6.0,SW,5.8,-,N/A,,Partly Cloudy,230,2013-07-02 15:51:00
8:58 AM,68.0,64.4,88,29.96,6.0,SSW,6.9,-,N/A,,Mostly Cloudy,210,2013-07-02 15:58:00
9:51 AM,68.0,63.0,84,29.95,6.0,Variable,5.8,-,N/A,,Haze,0,2013-07-02 16:51:00
10:30 AM,69.8,62.6,78,29.97,8.0,SW,3.5,-,N/A,,Scattered Clouds,230,2013-07-02 17:30:00
10:51 AM,70.0,63.0,78,29.97,8.0,SW,4.6,-,N/A,,Scattered Clouds,230,2013-07-02 17:51:00
11:51 AM,71.1,63.0,75,30.00,6.0,SW,5.8,-,N/A,,Haze,230,2013-07-02 18:51:00
12:51 PM,73.0,63.0,71,30.01,6.0,SW,9.2,-,N/A,,Haze,230,2013-07-02 19:51:00
1:03 PM,71.6,62.6,73,30.01,6.0,SW,8.1,-,N/A,,Haze,230,2013-07-02 20:03:00
1:38 PM,71.6,62.6,73,30.00,7.0,West,9.2,-,N/A,,Scattered Clouds,260,2013-07-02 20:38:00
1:48 PM,71.6,62.6,73,30.00,8.0,WSW,11.5,-,N/A,,Mostly Cloudy,240,2013-07-02 20:48:00
1:51 PM,71.1,63.0,75,29.99,9.0,WSW,9.2,-,N/A,,Mostly Cloudy,240,2013-07-02 20:51:00
1:55 PM,71.6,62.6,73,29.99,8.0,West,10.4,-,N/A,,Scattered Clouds,260,2013-07-02 20:55:00
2:51 PM,72.0,63.0,73,29.97,10.0,SW,6.9,-,N/A,,Partly Cloudy,230,2013-07-02 21:51:00
3:51 PM,71.1,63.0,75,29.95,10.0,WSW,8.1,-,N/A,,Partly Cloudy,250,2013-07-02 22:51:00
4:48 PM,69.8,62.6,78,29.95,10.0,SW,6.9,-,N/A,,Mostly Cloudy,230,2013-07-02 23:48:00
4:51 PM,70.0,63.0,78,29.94,10.0,WSW,8.1,-,N/A,,Mostly Cloudy,250,2013-07-02 23:51:00
5:51 PM,70.0,62.1,76,29.95,10.0,Variable,4.6,-,N/A,,Overcast,0,2013-07-03 00:51:00
6:51 PM,69.1,62.1,78,29.95,10.0,WSW,5.8,-,N/A,,Overcast,250,2013-07-03 01:51:00
7:51 PM,68.0,62.1,81,29.93,10.0,West,3.5,-,N/A,,Scattered Clouds,270,2013-07-03 02:51:00
8:51 PM,66.9,62.1,84,29.94,10.0,WSW,3.5,-,N/A,,Clear,240,2013-07-03 03:51:00
9:32 PM,66.2,62.6,88,29.94,10.0,WSW,3.5,-,N/A,,Partly Cloudy,250,2013-07-03 04:32:00
9:51 PM,66.9,62.1,84,29.93,10.0,Calm,Calm,-,N/A,,Partly Cloudy,0,2013-07-03 04:51:00
10:51 PM,66.9,62.1,84,29.91,10.0,Calm,Calm,-,N/A,,Clear,0,2013-07-03 05:51:00
11:34 PM,66.2,62.6,88,29.90,10.0,WSW,4.6,-,N/A,,Scattered Clouds,250,2013-07-03 06:34:00
11:51 PM,66.0,62.1,87,29.90,10.0,WSW,4.6,-,N/A,,Mostly Cloudy,250,2013-07-03 06:51:00